User: anonymous   Login
Location: Unspecified
(51.0950°N, 12.9690°E)
Time: 18:38:10
(UTC+00:00)
Language:

QB50P2 - Orbit

View from above orbital plane
View from above orbital plane
View from above satellite
View from above satellite

Ground track
Ground track

The orbit data is extracted from the following two-line orbital elements,

1 40032U 14033Y   24112.80910558  .00016709  00000-0  14381-2 0  9998
2 40032  98.0030  63.8293 0009305 357.9467   2.1714 14.97413725534752
Epoch (UTC): 21 April 2024 19:25:06
Eccentricity: 0.0009305
inclination: 98.0030°
perigee height: 568 km
apogee height: 581 km
right ascension of ascending node: 63.8293°
argument of perigee: 357.9467°
revolutions per day: 14.97413725
mean anomaly at epoch: 2.1714°
orbit number at epoch: 53475

The dashed part of the orbit path shows where the satellite is in the earth's shadow,  

DLR